Tracking 30264 objects as of 16-Feb-2025
HD Live streaming from Space Station
objects crossing your sky now

ASTRANIS UTILITYSAT

Track ASTRANIS UTILITYSAT now!


NORAD ID: 62454
Int'l Code: 2024-252A
Perigee: 4,195.2 km
Apogee: 66,557.8 km
Inclination: 8.7 °
Period: 1,414.8 minutes
Semi major axis: 41747 km
RCS: Unknown
Launch date: December 29, 2024
Source: United Kingdom (UK)
Launch site: AIR FORCE EASTERN TEST RANGE (AFETR)
Your satellite tracking list
Your tracking list is empty




NASA's NSSDC Master Catalog

Two Line Element Set (TLE):
1 62454U 24252A   25045.33207757 -.00000402  00000-0  00000-0 0  9993
2 62454   8.6902 351.6087 7469014 193.9867 119.5849  1.01778701   517
Source of the keplerian elements: AFSPC